TimeMDT,TemperatureF,Dew PointF,Humidity,Sea Level PressureIn,VisibilityMPH,Wind Direction,Wind SpeedMPH,Gust SpeedMPH,PrecipitationIn,Events,Conditions,WindDirDegrees,DateUTC
12:56 AM,42.1,30.9,65,30.17,-9999.0,Calm,Calm,-,N/A,,Unknown,0,2013-09-01 06:56:00
1:56 AM,39.9,30.9,70,30.15,-9999.0,Calm,Calm,-,N/A,,Unknown,0,2013-09-01 07:56:00
2:56 AM,39.0,30.9,73,30.15,-9999.0,Calm,Calm,-,N/A,,Unknown,0,2013-09-01 08:56:00
3:56 AM,37.9,32.0,79,30.14,-9999.0,Calm,Calm,-,N/A,,Unknown,0,2013-09-01 09:56:00
4:56 AM,37.0,32.0,82,30.14,-9999.0,Calm,Calm,-,N/A,,Unknown,0,2013-09-01 10:56:00
5:56 AM,36.0,32.0,86,30.16,-9999.0,NW,3.5,-,N/A,,Unknown,310,2013-09-01 11:56:00
6:56 AM,36.0,33.1,89,30.17,-9999.0,Calm,Calm,-,N/A,,Unknown,0,2013-09-01 12:56:00
7:56 AM,39.9,36.0,86,30.21,-9999.0,Calm,Calm,-,N/A,,Unknown,0,2013-09-01 13:56:00
8:56 AM,54.0,44.1,69,30.19,-9999.0,Calm,Calm,-,N/A,,Unknown,0,2013-09-01 14:56:00
9:56 AM,57.0,44.1,62,30.19,-9999.0,Calm,Calm,-,N/A,,Unknown,0,2013-09-01 15:56:00
10:56 AM,60.1,42.1,51,30.18,-9999.0,ESE,4.6,-,N/A,,Unknown,110,2013-09-01 16:56:00
11:56 AM,63.0,42.1,46,30.17,-9999.0,SE,4.6,-,N/A,,Unknown,130,2013-09-01 17:56:00
12:56 PM,68.0,45.0,43,30.15,-9999.0,Variable,3.5,-,N/A,,Unknown,0,2013-09-01 18:56:00
1:56 PM,73.0,41.0,31,30.12,-9999.0,Variable,3.5,-,N/A,,Unknown,0,2013-09-01 19:56:00
2:56 PM,72.0,39.9,31,30.11,-9999.0,ESE,5.8,-,N/A,,Unknown,110,2013-09-01 20:56:00
3:56 PM,73.0,37.9,28,30.10,-9999.0,East,4.6,-,N/A,,Unknown,100,2013-09-01 21:56:00
4:56 PM,73.0,37.9,28,30.10,-9999.0,Variable,4.6,-,N/A,,Unknown,0,2013-09-01 22:56:00
5:56 PM,73.0,37.9,28,30.08,-9999.0,Calm,Calm,-,N/A,,Unknown,0,2013-09-01 23:56:00
6:56 PM,69.1,39.0,33,30.09,-9999.0,Calm,Calm,-,N/A,,Unknown,0,2013-09-02 00:56:00
7:56 PM,59.0,39.0,48,30.12,-9999.0,Calm,Calm,-,N/A,,Unknown,0,2013-09-02 01:56:00
8:56 PM,54.0,35.1,49,30.10,-9999.0,Calm,Calm,-,N/A,,Unknown,0,2013-09-02 02:56:00
9:56 PM,50.0,35.1,57,30.12,-9999.0,NW,3.5,-,N/A,,Unknown,310,2013-09-02 03:56:00
10:56 PM,48.0,34.0,58,30.13,-9999.0,NW,3.5,-,N/A,,Unknown,310,2013-09-02 04:56:00
11:56 PM,46.0,33.1,61,30.12,-9999.0,NW,3.5,-,N/A,,Unknown,320,2013-09-02 05:56:00